Location: Newark
(13.8117°N, 3.6025°W)
Time: 19:25:50
(UTC+00:00)

Explorer 11/Cluster Stage 4 - Pass Details

Date: 02 September 2019
Orbit: 467 x 1259 km, 28.8° (Epoch: 17 October)

Event Time Altitude Azimuth Distance (km) Brightness Sun altitude
Rises 04:06:21 0° 241° (WSW) 2,626 - -28.4°
Reaches altitude 10° 04:08:24 10° 241° (WSW) 1,809 - -28.0°
Maximum altitude 04:12:33 86° 154° (SSE) 625 - -27.0°
Exits shadow 04:13:11 66° 71° (ENE) 690 6.4 -26.8°
Drops below altitude 10° 04:17:43 10° 64° (ENE) 2,234 9.9 -25.8°
Sets 04:20:29 0° 64° (ENE) 3,304 11.1 -25.1°
